Location: *
(60.1759°S, 155.0663°W)
Time: 06:02:41
(UTC+00:00)

Cosmos 1633 - Pass Details

Date: 17 September 2019
Orbit: 464 x 484 km, 82.5° (Epoch: 15 October)

Event Time Altitude Azimuth Distance (km) Brightness Sun altitude
Exits shadow 12:53:51 31° 74° (ENE) 879 4.0 -24.6°
Maximum altitude 12:54:15 32° 88° (E) 862 4.1 -24.5°
Drops below altitude 10° 12:57:36 10° 152° (SSE) 1,701 6.3 -24.3°
Sets 12:59:52 0° 161° (SSE) 2,593 7.3 -24.0°
